Location: Trebic
(49.2170°N, 15.8830°E)
Time: 22:16:46
(UTC+02:00)

Transit 4A - Pass Details

Date: 01 September 2019
Orbit: 867 x 978 km, 66.8° (Epoch: 23 October)

Event Time Altitude Azimuth Distance (km) Brightness Sun altitude
Rises 16:07:42 0° 185° (S) 3,658 11.4 32.9°
Reaches altitude 10° 16:10:25 10° 178° (S) 2,719 10.8 32.5°
Maximum altitude 16:16:13 38° 113° (ESE) 1,450 8.9 31.7°
Drops below altitude 10° 16:22:00 10° 48° (NE) 2,718 9.9 30.8°
Sets 16:24:42 0° 40° (NE) 3,658 10.5 30.4°
